Timestamp[UTC];2m Lufttemperatur [degC] (tas);Stations-Luftdruck [Pa] (ps);relative Luftfeuchtigkeit [%] (hurs);spezifische Luftfeuchtigkeit [kg/kg] (huss);Niederschlagsmenge [mm] (pr);Windgeschwindigkeit in 2m [m/s] (sfcWind);Windrichtung [deg];maximale Windgeschwindigkeit [m/s] (wsgsmax);u-Windkomponente [m/s] (uas);v-Windkomponente [m/s] (vas);Sonneneinstrahlung [W/m2];Blitzrate [n];Blitzentfernung [km];Bodenfeuchte in 5cm Tiefe [vol%];Bodenfeuchte in 15cm Tiefe [vol%];Bodenfeuchte in 30cm Tiefe [vol%];Bodenfeuchte in 60cm Tiefe [vol%];Bodentemperatur in 5cm Tiefe [degC];Bodentemperatur in 15cm Tiefe [degC];Bodentemperatur in 30cm Tiefe [degC];Bodentemperatur in 60cm Tiefe [degC];Matrixpotential in 30cm Tiefe [kPa];Bodenfeuchte aus CRNS [vol%] (mrso);Neutronen Anzahl [N/h]
2022-11-01 00:00:00;15,0;100610;80;0,0084;0,0;2,2;141;3,9;-1,72;1,32;0;0;0;19,5;29,8;31,1;25,5;13,6;13,8;13,8;13,8;-15,2;21,3;1571
2022-11-01 01:00:00;16,2;100583;77;0,0088;0,0;2,6;157;5,3;-2,35;0,71;0;0;0;19,5;29,8;31,1;25,5;13,6;13,8;13,8;13,8;-15,2;21,2;1554
2022-11-01 02:00:00;17,2;100565;76;0,0093;0,0;4,4;186;8,0;-4,41;-0,53;0;0;0;19,5;29,7;31,1;25,5;13,7;13,8;13,8;13,8;-15,2;21,1;1540
2022-11-01 03:00:00;17,0;100587;77;0,0093;0,0;4,4;189;7,8;-4,38;-0,7;0;0;0;19,5;29,7;31,1;25,5;13,7;13,8;13,7;13,8;-15,2;21,0;1513
2022-11-01 04:00:00;17,0;100650;76;0,0091;0,0;4,6;203;8,2;-4,18;-1,87;0;0;0;19,5;29,7;31,1;25,5;13,7;13,8;13,7;13,8;-15,2;21,0;1518
2022-11-01 05:00:00;16,5;100773;72;0,0084;0,0;4,9;233;8,6;-2,89;-3,92;0;0;0;19,5;29,7;31,1;25,5;13,7;13,8;13,7;13,7;-15,2;21,0;1414
2022-11-01 06:00:00;14,9;100905;72;0,0075;0,0;5,1;252;9,6;-1,53;-4,79;2;0;0;19,5;29,7;31,1;25,5;13,6;13,8;13,7;13,8;-15,3;21,0;1554
2022-11-01 07:00:00;13,7;101017;72;0,0069;0,0;5,3;234;9,1;-3,05;-4,26;51;0;0;19,4;29,7;31,1;25,5;13,5;13,7;13,7;13,7;-15,3;20,8;1499
2022-11-01 08:00:00;13,8;101088;72;0,007;0,0;5,0;222;9,1;-3,73;-3,37;171;0;0;19,4;29,7;31,1;25,5;13,3;13,7;13,7;13,7;-15,3;20,8;1465
2022-11-01 09:00:00;14,5;101150;70;0,0071;0,0;5,0;217;9,3;-3,99;-3,02;265;0;0;19,4;29,7;31,1;25,5;13,2;13,6;13,6;13,7;-15,3;20,9;1522
2022-11-01 10:00:00;15,2;101182;70;0,0074;0,0;5,8;220;10,4;-4,4;-3,67;321;0;0;19,3;29,6;31,0;25,5;13,2;13,5;13,6;13,7;-15,4;20,8;1476
2022-11-01 11:00:00;15,6;101227;69;0,0076;0,0;5,4;221;9,3;-3,98;-3,48;333;0;0;19,2;29,1;31,0;25,5;13,3;13,5;13,6;13,7;-15,3;20,7;1391
2022-11-01 12:00:00;16,0;101225;68;0,0076;0,0;5,6;212;9,4;-4,69;-3,0;307;0;0;19,2;28,6;31,0;25,5;13,4;13,5;13,5;13,7;-15,4;20,9;1531
2022-11-01 13:00:00;16,4;101217;66;0,0076;0,0;5,0;212;8,6;-4,21;-2,71;244;0;0;19,1;28,1;31,0;25,5;13,5;13,6;13,5;13,7;-15,4;20,9;1542
2022-11-01 14:00:00;16,0;101207;67;0,0075;0,0;5,4;199;9,7;-5,1;-1,83;164;0;0;19,0;28,1;31,0;25,5;13,6;13,6;13,5;13,7;-15,4;20,9;1545
2022-11-01 15:00:00;15,3;101212;68;0,0073;0,0;4,6;190;7,8;-4,5;-0,84;61;0;0;19,0;28,6;31,0;25,5;13,7;13,7;13,5;13,7;-15,4;20,9;1543
2022-11-01 16:00:00;14,3;101213;69;0,007;0,0;4,0;183;6,9;-4,0;-0,22;2;0;0;18,9;29,5;31,0;25,5;13,6;13,7;13,6;13,7;-15,4;20,8;1491
2022-11-01 17:00:00;13,7;101258;71;0,0069;0,0;3,7;185;6,6;-3,64;-0,37;0;0;0;18,9;27,6;31,0;25,5;13,5;13,7;13,6;13,6;-15,4;20,7;1571
2022-11-01 18:00:00;13,3;101260;73;0,0068;0,0;3,8;183;6,8;-3,77;-0,23;0;0;0;18,9;27,6;31,0;25,5;13,4;13,6;13,7;13,6;-15,4;20,5;1596
2022-11-01 19:00:00;12,9;101262;74;0,0068;0,0;3,9;188;6,9;-3,86;-0,59;0;0;0;18,9;28,5;31,0;25,6;13,2;13,6;13,7;13,6;-15,4;20,5;1488
2022-11-01 20:00:00;12,8;101250;75;0,0068;0,0;3,5;185;6,1;-3,45;-0,31;0;0;0;18,8;28,5;31,0;25,6;13,1;13,5;13,7;13,6;-15,4;20,4;1459
2022-11-01 21:00:00;13,3;101242;74;0,0069;0,0;4,2;184;7,4;-4,14;-0,32;0;0;0;18,8;27,5;31,0;25,6;13,1;13,5;13,6;13,6;-15,5;20,2;1507
2022-11-01 22:00:00;13,8;101203;74;0,0071;0,0;4,6;188;8,2;-4,59;-0,72;0;0;0;18,8;28,0;31,0;25,6;13,0;13,4;13,6;13,6;-15,5;20,0;1569
2022-11-01 23:00:00;13,8;101158;74;0,0072;0,0;4,2;184;7,8;-4,19;-0,34;0;0;0;18,8;27,5;30,9;25,6;13,0;13,3;13,6;13,6;-15,5;20,1;1503
2022-11-02 00:00:00;14,0;101153;75;0,0074;0,0;4,6;197;8,5;-4,39;-1,37;0;0;0;18,8;28,0;30,9;25,6;12,9;13,3;13,5;13,6;-15,5;19,8;1525
2022-11-02 01:00:00;13,6;101180;76;0,0073;0,0;4,4;203;7,9;-4,01;-1,73;0;0;0;18,8;27,5;30,9;25,6;12,9;13,2;13,4;13,6;-15,5;19,8;1511
2022-11-02 02:00:00;13,1;101185;78;0,0073;0,0;3,8;198;7,0;-3,61;-1,19;0;0;0;18,8;28,0;30,9;25,6;12,8;13,2;13,4;13,6;-15,6;19,8;1471
2022-11-02 03:00:00;12,7;101230;78;0,007;0,0;3,9;221;7,5;-2,81;-2,59;0;0;0;18,8;28,0;30,9;25,6;12,8;13,1;13,3;13,6;-15,6;19,9;1513
2022-11-02 04:00:00;12,6;101285;77;0,0069;0,0;4,5;231;8,6;-2,79;-3,54;0;0;0;18,8;28,0;30,9;25,6;12,7;13,1;13,3;13,6;-15,6;19,9;1537
2022-11-02 05:00:00;12,2;101340;78;0,0068;0,0;4,7;238;8,6;-2,43;-4,01;0;0;0;18,8;27,9;30,9;25,6;12,5;13,0;13,3;13,6;-15,6;19,8;1480
2022-11-02 06:00:00;12,0;101415;78;0,0067;0,0;5,1;246;9,8;-2,04;-4,7;3;0;0;18,7;27,5;30,9;25,6;12,4;12,9;13,2;13,6;-15,7;19,9;1539
2022-11-02 07:00:00;11,8;101543;79;0,0068;0,0;4,4;253;8,5;-1,25;-4,21;63;0;0;18,7;27,9;30,9;25,6;12,3;12,9;13,1;13,6;-15,7;20,2;1499
2022-11-02 08:00:00;12,5;101632;82;0,0073;0,0;4,3;245;8,1;-1,77;-3,86;181;0;0;18,7;27,9;30,9;25,6;12,2;12,8;13,1;13,6;-15,7;20,1;1494
2022-11-02 09:00:00;13,1;101697;79;0,0073;0,0;4,9;242;9,8;-2,24;-4,3;239;0;0;18,6;27,4;30,8;25,6;12,2;12,7;13,0;13,5;-15,7;20,0;1562
2022-11-02 10:00:00;13,7;101718;73;0,0071;0,0;5,1;236;9,4;-2,84;-4,18;303;0;0;18,6;27,4;30,8;25,6;12,3;12,7;13,0;13,5;-15,7;20,0;1404
2022-11-02 11:00:00;14,1;101740;69;0,0068;0,0;5,2;250;9,6;-1,73;-4,92;273;0;0;18,5;27,4;30,8;25,6;12,4;12,7;12,9;13,5;-15,7;20,2;1484
2022-11-02 12:00:00;14,4;101722;70;0,0071;0,0;4,5;234;8,2;-2,54;-3,5;278;0;0;18,4;27,3;30,8;25,6;12,5;12,7;12,9;13,4;-15,8;20,1;1492
2022-11-02 13:00:00;14,7;101680;70;0,0072;0,0;3,6;228;6,7;-2,35;-2,67;191;0;0;18,3;27,3;30,8;25,6;12,7;12,8;12,9;13,4;-15,8;20,0;1485
2022-11-02 14:00:00;14,8;101640;69;0,0071;0,0;3,6;204;6,4;-3,21;-1,5;150;0;0;18,3;27,3;30,8;25,6;12,8;12,9;12,9;13,4;-15,8;20,0;1446
2022-11-02 15:00:00;13,1;101607;72;0,0067;0,0;2,3;190;4,1;-2,26;-0,45;22;0;0;18,2;27,3;30,8;25,6;12,9;12,9;12,9;13,4;-15,8;19,9;1521
2022-11-02 16:00:00;12,3;101570;72;0,0063;0,0;2,4;174;4,3;-2,42;0,25;1;0;0;18,2;27,2;30,8;25,6;12,8;13,0;13,0;13,4;-15,8;19,8;1516
2022-11-02 17:00:00;11,6;101575;73;0,0061;0,0;2,5;170;4,2;-2,48;0,42;0;0;0;18,2;27,2;30,8;25,6;12,7;13,0;13,0;13,3;-15,8;19,9;1495
2022-11-02 18:00:00;11,6;101550;72;0,006;0,0;3,6;169;6,4;-3,51;0,67;0;0;0;18,2;27,2;30,8;25,6;12,6;12,9;13,1;13,3;-15,8;19,7;1467
2022-11-02 19:00:00;11,4;101505;73;0,006;0,0;3,5;168;5,6;-3,42;0,73;0;0;0;18,2;27,2;30,8;25,6;12,5;12,9;13,1;13,3;-15,8;19,8;1524
2022-11-02 20:00:00;11,0;101423;74;0,006;0,0;3,5;164;6,2;-3,4;0,92;0;0;0;18,1;27,2;30,8;25,6;12,4;12,8;13,1;13,3;-15,8;19,7;1493
2022-11-02 21:00:00;10,7;101370;77;0,0061;0,0;2,9;162;4,7;-2,75;0,88;0;0;0;18,1;27,2;30,7;25,6;12,3;12,8;13,0;13,3;-15,9;19,7;1507
2022-11-02 22:00:00;10,1;101307;80;0,0061;0,0;3,1;152;5,7;-2,77;1,44;0;0;0;18,1;27,2;30,7;25,6;12,2;12,7;13,0;13,3;-15,9;19,8;1489
2022-11-02 23:00:00;9,6;101250;81;0,006;0,0;2,7;146;4,6;-2,26;1,5;0;0;0;18,1;27,2;30,7;25,6;12,1;12,6;12,9;13,3;-15,9;19,7;1558
2022-11-03 00:00:00;9,4;101200;81;0,0059;0,0;2,3;142;4,1;-1,85;1,42;0;0;0;18,1;27,2;30,7;25,6;12,1;12,6;12,9;13,3;-16,0;19,8;1596
2022-11-03 01:00:00;9,2;101150;82;0,0059;0,0;2,3;137;3,8;-1,7;1,59;0;0;0;18,1;27,1;30,7;25,6;12,0;12,5;12,8;13,3;-16,0;19,8;1554
2022-11-03 02:00:00;9,5;101050;81;0,0059;0,0;3,0;144;5,2;-2,44;1,72;0;0;0;18,1;27,1;30,7;25,6;11,9;12,4;12,7;13,3;-16,0;19,8;1562
2022-11-03 03:00:00;9,6;100977;81;0,006;0,0;2,6;150;4,4;-2,27;1,31;0;0;0;18,1;27,1;30,7;25,6;11,9;12,4;12,7;13,3;-16,0;19,6;1595
2022-11-03 04:00:00;10,0;100910;82;0,0062;0,0;3,0;146;5,3;-2,52;1,67;0;0;0;18,0;27,1;30,7;25,6;11,8;12,3;12,6;13,3;-16,0;19,5;1577
2022-11-03 05:00:00;10,1;100853;83;0,0064;0,0;2,6;146;4,2;-2,14;1,42;0;0;0;18,0;27,1;30,7;25,6;11,8;12,3;12,6;13,2;-16,0;19,7;1621
2022-11-03 06:00:00;10,4;100765;83;0,0065;0,0;3,2;143;5,7;-2,62;1,9;2;0;0;18,1;27,1;30,7;25,6;11,7;12,2;12,5;13,2;-16,1;19,7;1546
2022-11-03 07:00:00;11,0;100687;82;0,0067;0,0;3,9;145;7,2;-3,21;2,21;35;0;0;18,1;27,1;30,6;25,6;11,7;12,2;12,4;13,2;-16,0;19,7;1633
2022-11-03 08:00:00;11,7;100625;80;0,0068;0,0;3,8;150;6,7;-3,32;1,84;62;0;0;18,1;27,1;30,6;25,6;11,7;12,1;12,4;13,2;-16,1;19,9;1621
2022-11-03 09:00:00;12,7;100503;77;0,007;0,0;4,1;152;7,0;-3,64;1,9;102;0;0;18,1;27,1;30,6;25,6;11,8;12,1;12,3;13,1;-16,1;19,9;1675
2022-11-03 10:00:00;13,6;100362;73;0,0071;0,0;4,9;154;8,6;-4,39;2,11;128;0;0;18,1;27,1;30,6;25,6;11,9;12,1;12,3;13,1;-16,2;20,0;1599
2022-11-03 11:00:00;14,1;100253;71;0,0071;0,0;6,3;156;10,4;-5,76;2,56;133;0;0;18,0;27,0;30,6;25,6;12,1;12,2;12,3;13,1;-16,2;20,0;1625
2022-11-03 12:00:00;14,0;100095;72;0,0072;0,0;5,3;148;9,9;-4,54;2,69;107;0;0;18,0;27,0;30,6;25,6;12,1;12,2;12,2;13,1;-16,2;20,3;1684
2022-11-03 13:00:00;13,6;99940;74;0,0072;0,0;5,0;136;8,6;-3,61;3,43;100;0;0;18,0;27,0;30,6;25,6;12,2;12,3;12,2;13,0;-16,2;20,4;1728
2022-11-03 14:00:00;13,1;99867;76;0,0071;0,24;4,8;144;8,5;-3,85;2,76;28;0;0;18,0;27,0;30,6;25,6;12,3;12,3;12,3;13,0;-16,2;20,5;1792
2022-11-03 15:00:00;11,5;99840;86;0,0073;1,25;3,0;138;5,6;-2,22;2,0;5;0;0;18,0;27,0;30,6;25,6;12,3;12,4;12,3;13,0;-16,2;20,7;1748
2022-11-03 16:00:00;11,2;99727;90;0,0075;0,42;3,4;131;5,9;-2,27;2,55;0;0;0;18,0;27,0;30,6;25,6;12,3;12,4;12,3;13,0;-16,2;20,9;1644
2022-11-03 17:00:00;11,3;99670;90;0,0076;0,29;2,7;145;4,9;-2,25;1,54;0;0;0;18,0;27,0;30,6;25,6;12,3;12,4;12,3;13,0;-16,2;21,1;1690
2022-11-03 18:00:00;11,8;99630;88;0,0076;0,07;3,2;155;5,7;-2,94;1,31;0;0;0;18,0;27,0;30,6;25,6;12,2;12,4;12,4;13,0;-16,3;21,3;1680
2022-11-03 19:00:00;11,6;99613;89;0,0076;1,04;3,2;165;5,2;-3,13;0,79;0;0;0;18,0;27,0;30,6;25,6;12,2;12,4;12,4;13,0;-16,3;21,4;1659
2022-11-03 20:00:00;11,5;99587;90;0,0076;0,16;3,2;172;5,3;-3,16;0,44;0;0;0;18,0;27,0;30,5;25,6;12,2;12,4;12,4;12,9;-16,3;21,6;1708
2022-11-03 21:00:00;11,7;99600;88;0,0076;0,0;3,3;189;5,7;-3,2;-0,56;0;0;0;18,1;26,9;30,5;25,6;12,2;12,4;12,4;12,9;-16,3;21,7;1618
2022-11-03 22:00:00;11,1;99665;88;0,0073;0,24;4,4;238;8,0;-1,82;-3,45;0;0;0;18,1;26,9;30,5;25,6;12,2;12,4;12,4;12,9;-16,4;22,0;1669
2022-11-03 23:00:00;10,4;99757;85;0,0067;0,0;3,4;243;6,8;-1,49;-3,01;0;0;0;18,2;26,9;30,5;25,6;12,0;12,3;12,4;12,9;-16,4;21,9;1606
2022-11-04 00:00:00;10,3;99855;86;0,0067;0,0;3,4;228;6,2;-2,28;-2,56;0;0;0;18,2;26,9;30,5;25,6;11,9;12,3;12,3;12,9;-16,4;21,9;1676
2022-11-04 01:00:00;9,9;99930;87;0,0067;0,0;3,0;228;5,3;-1,95;-2,22;0;0;0;18,3;26,9;30,5;25,6;11,9;12,2;12,3;12,9;-16,4;22,0;1634
2022-11-04 02:00:00;9,3;99958;88;0,0064;0,0;2,8;212;5,4;-2,29;-1,52;0;0;0;18,4;26,9;30,5;25,6;11,8;12,2;12,3;12,9;-16,4;22,2;1588
2022-11-04 03:00:00;8,8;99953;88;0,0062;0,0;2,7;205;4,6;-2,4;-1,15;0;0;0;18,4;26,9;30,5;25,6;11,7;12,1;12,3;12,9;-16,5;22,4;1605
2022-11-04 04:00:00;8,6;99972;88;0,0061;0,0;2,1;212;3,7;-1,76;-1,09;0;0;0;18,5;26,9;30,5;25,6;11,6;12,1;12,2;12,9;-16,5;22,7;1584
2022-11-04 05:00:00;7,5;100003;89;0,0058;0,0;1,3;194;2,3;-1,22;-0,33;0;0;0;18,5;26,9;30,5;25,6;11,5;12,0;12,2;12,9;-16,5;22,6;1591
2022-11-04 06:00:00;7,8;100047;89;0,0059;0,0;0,7;181;1,4;-0,58;0,18;0;0;0;18,6;26,9;30,5;25,6;11,4;11,9;12,2;12,9;-16,5;22,6;1608
2022-11-04 07:00:00;8,5;100072;88;0,0061;0,0;0,8;212;1,7;-0,64;-0,43;20;0;0;18,6;27,0;30,4;25,6;11,3;11,8;12,1;12,8;-16,6;22,6;1641
2022-11-04 08:00:00;8,7;100143;90;0,0063;0,0;1,8;104;3,2;-0,45;1,68;57;0;0;18,7;27,0;30,4;25,6;11,4;11,8;12,1;12,8;-16,6;22,5;1649
2022-11-04 09:00:00;9,4;100190;89;0,0065;0,0;1,5;127;2,7;-0,89;1,18;95;0;0;18,7;27,0;30,4;25,6;11,5;11,8;12,0;12,8;-16,6;22,5;1574
2022-11-04 10:00:00;10,2;100223;89;0,0069;0,0;0,8;234;1,7;0,28;-0,06;154;0;0;18,8;27,0;30,4;25,6;11,6;11,8;12,0;12,8;-16,7;22,5;1693
2022-11-04 11:00:00;11,3;100265;85;0,0071;0,0;1,0;240;1,9;0,46;-0,56;120;0;0;18,9;27,0;30,4;25,6;11,7;11,8;11,9;12,8;-16,7;22,3;1641
2022-11-04 12:00:00;11,3;100313;83;0,0069;0,0;1,0;306;1,8;0,61;-0,82;113;0;0;18,9;27,0;30,4;25,7;11,8;11,9;11,9;12,8;-16,7;22,2;1622
2022-11-04 13:00:00;12,0;100340;84;0,0073;0,0;1,3;322;2,7;1,04;-0,82;179;0;0;18,9;27,0;30,4;25,7;11,9;12,0;11,9;12,7;-16,7;22,2;1608
2022-11-04 14:00:00;11,6;100417;83;0,007;0,0;1,6;334;3,1;1,45;-0,65;45;0;0;18,9;27,0;30,4;25,7;12,0;12,0;11,9;12,7;-16,7;22,1;1629
2022-11-04 15:00:00;10,6;100508;85;0,0067;0,0;1,1;324;2,1;0,89;-0,67;18;0;0;18,9;27,0;30,4;25,7;12,0;12,1;12,0;12,7;-16,7;22,2;1544
2022-11-04 16:00:00;10,3;100593;86;0,0067;0,0;1,4;319;2,4;1,07;-0,91;0;0;0;18,9;27,0;30,4;25,7;11,9;12,1;12,0;12,7;-16,7;22,1;1591
2022-11-04 17:00:00;10,3;100688;86;0,0067;0,0;1,7;298;2,8;0,82;-1,51;0;0;0;19,0;27,0;30,4;25,7;11,8;12,1;12,0;12,7;-16,7;21,8;1556
2022-11-04 18:00:00;10,1;100753;88;0,0067;0,0;2,2;323;3,5;1,73;-1,33;0;0;0;19,0;27,0;30,4;25,7;11,7;12,0;12,1;12,7;-16,7;21,7;1543
2022-11-04 19:00:00;9,9;100807;86;0,0065;0,0;2,1;319;3,2;1,59;-1,38;0;0;0;19,0;27,0;30,4;25,7;11,6;12,0;12,1;12,7;-16,7;21,7;1556
2022-11-04 20:00:00;9,2;100885;87;0,0062;0,0;1,5;298;2,4;0,71;-1,34;0;0;0;19,0;27,0;30,4;25,7;11,5;12,0;12,1;12,7;-16,7;21,7;1579
2022-11-04 21:00:00;8,4;100983;88;0,006;0,0;2,7;285;4,4;0,72;-2,6;0;0;0;19,0;27,1;30,4;25,7;11,4;11,9;12,1;12,7;-16,8;21,8;1468
2022-11-04 22:00:00;7,7;101050;90;0,0058;0,0;2,5;280;4,0;0,48;-2,46;0;0;0;19,0;27,1;30,3;25,7;11,2;11,8;12,0;12,6;-16,8;21,9;1573
2022-11-04 23:00:00;7,4;101073;91;0,0058;0,0;2,3;272;3,7;0,09;-2,31;0;0;0;19,0;27,1;30,3;25,7;11,1;11,7;12,0;12,6;-16,8;22,0;1527
2022-11-05 00:00:00;7,0;101105;92;0,0056;0,0;2,7;272;4,0;0,11;-2,69;0;0;0;19,0;27,1;30,3;25,7;10,9;11,6;12,0;12,6;-16,9;21,9;1520
2022-11-05 01:00:00;6,6;101163;91;0,0054;0,0;1,6;272;3,0;0,09;-1,58;0;0;0;19,0;27,1;30,3;25,7;10,8;11,5;11,9;12,6;-16,9;21,7;1520
2022-11-05 02:00:00;6,6;101202;90;0,0054;0,02;3,1;248;5,0;-1,14;-2,9;0;0;0;19,0;27,1;30,3;25,7;10,6;11,4;11,9;12,6;-16,9;21,6;1401
2022-11-05 03:00:00;6,4;101200;91;0,0054;0,02;3,4;246;5,2;-1,36;-3,08;0;0;0;19,0;27,1;30,3;25,7;10,6;11,3;11,8;12,6;-16,9;21,5;1507
2022-11-05 04:00:00;5,7;101248;93;0,0052;0,04;2,8;234;4,6;-1,6;-2,28;0;0;0;19,0;27,1;30,3;25,7;10,5;11,2;11,7;12,6;-16,9;21,3;1564
2022-11-05 05:00:00;5,4;101277;94;0,0052;0,02;2,9;231;4,5;-1,76;-2,24;0;0;0;19,0;27,1;30,3;25,7;10,4;11,2;11,7;12,6;-16,9;21,2;1494
2022-11-05 06:00:00;5,4;101300;94;0,0052;0,02;3,0;241;4,9;-1,44;-2,66;1;0;0;19,0;27,1;30,3;25,7;10,3;11,1;11,6;12,6;-16,9;21,0;1455
2022-11-05 07:00:00;5,6;101348;95;0,0053;0,02;3,2;234;5,4;-1,86;-2,6;70;0;0;19,0;27,1;30,3;25,7;10,2;11,0;11,5;12,6;-16,9;21,0;1527
2022-11-05 08:00:00;6,9;101335;98;0,006;0,04;3,5;224;5,4;-2,54;-2,42;176;0;0;18,9;27,1;30,3;25,7;10,1;10,9;11,4;12,5;-16,9;20,8;1413
2022-11-05 09:00:00;8,6;101348;92;0,0063;0,0;3,3;220;5,1;-2,54;-2,18;236;0;0;18,9;27,1;30,3;25,7;10,1;10,8;11,3;12,5;-16,9;20,9;1402
2022-11-05 10:00:00;10,0;101377;88;0,0066;0,0;3,5;228;6,0;-2,33;-2,62;300;0;0;18,9;27,1;30,3;25,7;10,2;10,8;11,3;12,5;-17,0;20,7;1496
2022-11-05 11:00:00;10,7;101408;83;0,0066;0,0;3,3;226;5,9;-2,22;-2,38;232;0;0;18,9;27,1;30,2;25,7;10,4;10,8;11,2;12,4;-16,9;20,8;1556
2022-11-05 12:00:00;10,6;101397;80;0,0063;0,0;3,3;226;5,6;-2,33;-2,39;170;0;0;18,9;27,1;30,2;25,7;10,6;10,9;11,1;12,4;-17,0;20,9;1565
2022-11-05 13:00:00;10,8;101355;78;0,0062;0,0;2,9;197;4,7;-2,73;-0,84;136;0;0;18,8;27,1;30,2;25,7;10,8;10,9;11,1;12,4;-17,0;21,1;1522
2022-11-05 14:00:00;10,8;101307;76;0,0061;0,0;2,4;192;3,9;-2,3;-0,53;67;0;0;18,8;27,1;30,2;25,7;10,9;11,0;11,1;12,3;-17,0;21,0;1545
2022-11-05 15:00:00;10,6;101298;76;0,006;0,0;2,2;189;3,7;-2,13;-0,37;27;0;0;18,8;27,1;30,2;25,7;11,0;11,1;11,1;12,3;-17,0;20,8;1550
2022-11-05 16:00:00;9,9;101320;78;0,0058;0,0;2,1;187;4,0;-2,06;-0,27;0;0;0;18,8;27,1;30,2;25,7;11,0;11,2;11,2;12,3;-17,0;20,6;1564
2022-11-05 17:00:00;9,9;101325;80;0,006;0,0;2,9;192;5,0;-2,78;-0,63;0;0;0;18,8;27,1;30,2;25,7;11,0;11,2;11,2;12,3;-17,0;20,7;1554
2022-11-05 18:00:00;9,9;101340;80;0,006;0,0;3,6;199;5,9;-3,44;-1,21;0;0;0;18,8;27,1;30,2;25,7;10,9;11,2;11,2;12,2;-17,0;20,7;1467
2022-11-05 19:00:00;9,6;101337;81;0,0059;0,0;3,6;200;6,0;-3,34;-1,27;0;0;0;18,8;27,1;30,2;25,7;10,8;11,1;11,2;12,2;-17,0;20,7;1568
2022-11-05 20:00:00;9,4;101330;80;0,0059;0,0;3,4;194;5,8;-3,24;-0,84;0;0;0;18,8;27,1;30,2;25,7;10,8;11,1;11,2;12,2;-17,0;20,7;1510
2022-11-05 21:00:00;9,1;101317;80;0,0057;0,0;3,6;189;6,2;-3,51;-0,57;0;0;0;18,8;27,1;30,2;25,7;10,7;11,1;11,2;12,2;-17,0;20,5;1490
2022-11-05 22:00:00;9,1;101270;80;0,0057;0,0;3,7;186;6,3;-3,67;-0,37;0;0;0;18,8;27,1;30,2;25,7;10,7;11,0;11,2;12,2;-17,1;20,3;1520
2022-11-05 23:00:00;8,9;101237;81;0,0057;0,0;2,9;184;5,2;-2,86;-0,22;0;0;0;18,8;27,1;30,2;25,7;10,6;11,0;11,2;12,2;-17,0;20,3;1421
2022-11-06 00:00:00;8,4;101195;82;0,0056;0,0;3,2;172;5,1;-3,16;0,47;0;0;0;18,8;27,1;30,2;25,7;10,6;11,0;11,2;12,2;-17,1;20,6;1436
2022-11-06 01:00:00;8,2;101170;82;0,0055;0,0;3,0;164;4,6;-2,84;0,79;0;0;0;18,8;27,1;30,2;25,7;10,5;10,9;11,2;12,2;-17,1;20,7;1536
2022-11-06 02:00:00;8,2;101133;82;0,0055;0,0;3,2;164;5,2;-3,08;0,86;0;0;0;18,8;27,1;30,2;25,7;10,4;10,9;11,1;12,2;-17,1;20,6;1537
2022-11-06 03:00:00;8,7;101093;82;0,0057;0,0;3,6;169;5,7;-3,51;0,65;0;0;0;18,8;27,0;30,2;25,7;10,4;10,8;11,1;12,1;-17,1;20,5;1585
2022-11-06 04:00:00;9,0;101050;82;0,0058;0,0;3,7;166;6,3;-3,64;0,87;0;0;0;18,8;27,0;30,2;25,7;10,4;10,8;11,0;12,1;-17,1;20,6;1531
2022-11-06 05:00:00;8,1;100983;84;0,0056;0,0;3,1;150;5,6;-2,69;1,36;0;0;0;18,8;27,0;30,2;25,7;10,3;10,8;11,0;12,1;-17,1;20,6;1489
2022-11-06 06:00:00;6,6;100947;87;0,0053;0,0;2,2;146;3,5;-1,79;1,22;1;0;0;18,8;27,0;30,2;25,7;10,3;10,7;11,0;12,1;-17,1;20,7;1506
2022-11-06 07:00:00;7,4;100938;87;0,0055;0,0;2,3;146;3,8;-1,9;1,27;44;0;0;18,8;27,0;30,1;25,7;10,1;10,7;10,9;12,1;-17,1;20,6;1595
2022-11-06 08:00:00;9,2;100907;83;0,006;0,0;3,6;158;6,7;-3,39;1,29;75;0;0;18,8;27,0;30,1;25,7;10,1;10,6;10,9;12,1;-17,1;20,8;1608
2022-11-06 09:00:00;10,3;100830;81;0,0063;0,0;3,9;163;6,7;-3,74;1,1;121;0;0;18,8;27,0;30,1;25,7;10,1;10,6;10,8;12,0;-17,1;21,0;1575
2022-11-06 10:00:00;11,1;100747;80;0,0065;0,0;4,4;164;7,6;-4,25;1,19;149;0;0;18,8;27,0;30,1;25,7;10,3;10,6;10,8;12,0;-17,1;21,1;1584
2022-11-06 11:00:00;11,8;100662;78;0,0067;0,0;4,4;164;7,6;-4,28;1,19;175;0;0;18,8;27,0;30,1;25,7;10,4;10,6;10,8;12,0;-17,1;21,3;1512
2022-11-06 12:00:00;11,9;100547;76;0,0066;0,0;4,1;161;7,0;-3,91;1,31;125;0;0;18,8;27,0;30,1;25,7;10,6;10,7;10,8;12,0;-17,1;21,1;1637
2022-11-06 13:00:00;12,1;100492;73;0,0064;0,0;3,9;170;7,0;-3,79;0,63;117;0;0;18,8;27,0;30,1;25,7;10,8;10,8;10,8;11,9;-17,1;20,9;1686
2022-11-06 14:00:00;11,8;100487;68;0,0059;0,0;2,9;190;4,8;-2,79;-0,57;29;0;0;18,8;27,0;30,1;25,7;10,8;10,8;10,8;11,9;-17,1;20,8;1722
2022-11-06 15:00:00;10,0;100435;78;0,006;0,83;2,4;172;4,7;-2,29;0,4;4;0;0;18,8;27,0;30,1;25,7;10,8;10,9;10,8;11,9;-17,2;20,9;1647
2022-11-06 16:00:00;9,2;100367;82;0,0059;0,02;3,3;164;6,5;-3,22;0,87;0;0;0;18,8;27,0;30,1;25,7;10,8;10,9;10,9;11,9;-17,2;21,2;1670
2022-11-06 17:00:00;9,1;100290;81;0,0058;0,31;4,5;159;7,2;-4,19;1,56;0;0;0;18,8;27,0;30,1;25,7;10,8;10,9;10,9;11,9;-17,2;21,1;1678
2022-11-06 18:00:00;9,3;100278;78;0,0057;0,0;4,8;168;7,5;-4,66;0,93;0;0;0;18,8;27,0;30,1;25,7;10,7;10,9;10,9;11,9;-17,2;21,0;1657
2022-11-06 19:00:00;9,7;100293;77;0,0057;0,0;4,1;179;7,4;-4,09;0,04;0;0;0;18,9;27,0;30,1;25,7;10,6;10,9;10,9;11,9;-17,2;20,9;1615
2022-11-06 20:00:00;10,4;100342;80;0,0062;0,0;4,8;207;8,7;-4,22;-2,18;0;0;0;18,9;27,0;30,1;25,7;10,5;10,8;10,9;11,9;-17,2;20,9;1553
2022-11-06 21:00:00;10,7;100400;81;0,0065;0,0;5,2;208;10,2;-4,57;-2,55;0;0;0;18,9;27,0;30,1;25,7;10,5;10,8;10,9;11,8;-17,3;21,0;1534
2022-11-06 22:00:00;10,6;100455;82;0,0065;0,0;4,1;208;7,7;-3,55;-1,96;0;0;0;18,9;27,0;30,1;25,7;10,5;10,8;10,9;11,8;-17,3;21,1;1541
2022-11-06 23:00:00;10,8;100483;82;0,0066;0,0;4,2;203;8,7;-3,85;-1,63;0;0;0;18,9;27,0;30,1;25,7;10,5;10,8;10,9;11,8;-17,3;21,0;1584
2022-11-07 00:00:00;10,8;100507;83;0,0067;0,0;4,4;199;8,9;-4,16;-1,46;0;0;0;19,0;27,0;30,1;25,7;10,5;10,8;10,9;11,8;-17,3;20,9;1652
2022-11-07 01:00:00;10,4;100525;84;0,0066;0,0;4,0;196;7,8;-3,85;-1,1;0;0;0;19,0;27,0;30,1;25,7;10,5;10,8;10,9;11,8;-17,3;21,1;1611
2022-11-07 02:00:00;10,6;100533;84;0,0067;0,0;3,7;200;6,4;-3,51;-1,3;0;0;0;19,0;27,0;30,1;25,7;10,4;10,8;10,9;11,8;-17,3;21,4;1575
2022-11-07 03:00:00;10,8;100550;84;0,0068;0,0;3,4;202;5,8;-3,17;-1,28;0;0;0;19,0;27,0;30,1;25,7;10,4;10,7;10,9;11,8;-17,3;21,5;1490
2022-11-07 04:00:00;10,9;100560;83;0,0068;0,0;3,7;197;6,1;-3,51;-1,08;0;0;0;19,0;27,0;30,0;25,7;10,4;10,7;10,9;11,8;-17,3;21,7;1656
2022-11-07 05:00:00;11,1;100562;83;0,0068;0,0;3,7;201;6,6;-3,43;-1,36;0;0;0;19,0;27,0;30,0;25,7;10,4;10,7;10,8;11,8;-17,3;21,7;1591
2022-11-07 06:00:00;11,8;100577;81;0,0069;0,0;4,3;210;7,6;-3,68;-2,17;1;0;0;19,0;27,0;30,0;25,7;10,4;10,7;10,8;11,8;-17,4;21,7;1588
2022-11-07 07:00:00;12,1;100610;81;0,0071;0,0;4,1;212;7,3;-3,45;-2,16;24;0;0;19,0;27,0;30,0;25,7;10,4;10,7;10,8;11,8;-17,4;21,8;1592
2022-11-07 08:00:00;12,8;100663;81;0,0074;0,0;4,0;227;7,5;-2,74;-2,96;46;0;0;19,0;27,0;30,0;25,7;10,5;10,7;10,8;11,8;-17,4;21,6;1543
2022-11-07 09:00:00;13,0;100700;83;0,0077;0,0;4,4;216;7,9;-3,53;-2,62;59;0;0;19,0;27,0;30,0;25,7;10,6;10,7;10,8;11,8;-17,4;21,5;1503
2022-11-07 10:00:00;12,9;100733;86;0,0079;0,0;3,8;206;6,7;-3,42;-1,7;101;0;0;19,0;27,0;30,0;25,7;10,7;10,8;10,8;11,8;-17,4;21,3;1581
2022-11-07 11:00:00;13,6;100747;83;0,008;0,0;3,4;211;5,9;-2,93;-1,81;106;0;0;19,0;27,0;30,0;25,7;10,9;10,9;10,8;11,7;-17,4;21,2;1533
2022-11-07 12:00:00;14,4;100728;80;0,0081;0,0;4,0;217;7,2;-3,2;-2,46;126;0;0;19,0;27,0;30,0;25,7;11,1;11,0;10,8;11,7;-17,4;21,3;1460
2022-11-07 13:00:00;14,5;100720;77;0,0079;0,0;3,9;219;7,2;-3,01;-2,5;63;0;0;19,0;27,0;30,0;25,7;11,2;11,1;10,9;11,7;-17,4;21,2;1517
2022-11-07 14:00:00;14,6;100712;78;0,008;0,0;3,8;208;6,3;-3,3;-1,76;70;0;0;18,9;27,0;30,0;25,7;11,3;11,2;10,9;11,7;-17,4;21,3;1584
2022-11-07 15:00:00;14,4;100713;79;0,008;0,0;3,2;195;6,4;-3,09;-0,86;28;0;0;18,9;27,0;30,0;25,7;11,4;11,2;11,0;11,7;-17,4;21,2;1525
2022-11-07 16:00:00;14,2;100748;79;0,0079;0,0;3,5;193;6,2;-3,44;-0,82;1;0;0;18,9;27,0;30,0;25,7;11,5;11,3;11,1;11,7;-17,4;21,1;1635
2022-11-07 17:00:00;14,1;100767;78;0,0078;0,0;3,7;194;6,7;-3,55;-0,97;0;0;0;18,9;27,0;30,0;25,7;11,5;11,4;11,1;11,7;-17,5;21,3;1613
2022-11-07 18:00:00;14,2;100772;79;0,0078;0,0;3,7;196;7,0;-3,52;-1,08;0;0;0;18,9;27,0;30,0;25,7;11,5;11,4;11,2;11,7;-17,5;21,2;1568
2022-11-07 19:00:00;14,2;100777;78;0,0078;0,0;4,0;197;6,8;-3,78;-1,19;0;0;0;18,9;27,0;30,0;25,7;11,5;11,4;11,2;11,7;-17,5;21,3;1613
2022-11-07 20:00:00;13,6;100780;79;0,0076;0,0;3,3;188;5,7;-3,22;-0,49;0;0;0;18,9;27,0;30,0;25,7;11,4;11,4;11,3;11,7;-17,5;21,2;1572
2022-11-07 21:00:00;13,2;100785;80;0,0075;0,0;3,0;188;5,4;-3,01;-0,43;0;0;0;18,9;27,0;30,0;25,8;11,4;11,5;11,3;11,7;-17,5;21,1;1532
2022-11-07 22:00:00;13,1;100747;81;0,0075;0,0;2,9;181;5,0;-2,94;-0,09;0;0;0;19,0;27,0;30,0;25,8;11,4;11,5;11,3;11,8;-17,5;21,0;1531
2022-11-07 23:00:00;12,2;100720;82;0,0073;0,0;2,7;165;4,4;-2,58;0,69;0;0;0;19,0;27,0;30,0;25,8;11,3;11,5;11,3;11,8;-17,5;21,0;1526
2022-11-08 00:00:00;12,7;100703;81;0,0074;0,0;3,4;166;5,8;-3,3;0,78;0;0;0;19,0;27,0;30,0;25,8;11,3;11,4;11,4;11,8;-17,5;21,0;1620
2022-11-08 01:00:00;12,2;100678;82;0,0072;0,0;3,2;164;5,2;-3,04;0,87;0;0;0;19,0;27,0;30,0;25,8;11,3;11,4;11,4;11,8;-17,5;20,9;1549
2022-11-08 02:00:00;11,6;100630;83;0,007;0,0;3,1;158;5,3;-2,85;1,12;0;0;0;19,0;27,0;30,0;25,8;11,2;11,4;11,4;11,8;-17,5;20,8;1582
2022-11-08 03:00:00;10,7;100540;86;0,0068;0,0;3,4;144;5,7;-2,76;1,93;0;0;0;19,0;27,0;30,0;25,8;11,1;11,4;11,4;11,8;-17,5;20,6;1528
2022-11-08 04:00:00;11,0;100447;85;0,0069;0,0;4,6;150;8,6;-3,97;2,29;0;0;0;19,0;27,0;30,0;25,8;11,0;11,3;11,4;11,8;-17,6;20,6;1581
2022-11-08 05:00:00;11,0;100363;84;0,0069;0,0;4,7;147;8,0;-3,93;2,49;0;0;0;19,0;27,0;30,0;25,8;11,0;11,3;11,3;11,8;-17,6;20,8;1603
2022-11-08 06:00:00;10,6;100310;84;0,0067;0,0;4,2;144;7,5;-3,47;2,44;2;0;0;19,0;27,0;30,0;25,8;10,9;11,2;11,3;11,8;-17,6;20,8;1587
2022-11-08 07:00:00;10,6;100313;85;0,0067;0,0;3,8;143;6,6;-3,05;2,26;57;0;0;19,0;26,9;30,0;25,8;10,9;11,2;11,3;11,8;-17,6;20,8;1635